SL-16 DEB, 39864

Orbit data source: Space-Track

SL-16 DEB, 39864 is space debris in LEO originally from a launch on Fri, 25 Dec 1992 UTC launched from the Tyuratam Missile And Space Complex (TTMTR). Debris objects in space refer to the collection of defunct objects orbiting the Earth. Examples of debris include non-operational satellites, rocket bodies, and fragments generated from explosions, collisions, or faulty payload assembly.

Loading next visibility...
Identifier
39864, 1992-093LS
Orbit
LEO
Country
Flag of CISCIS
Related business
Manufacturer
Unknown
Mission
Spacecraft
Bus & Motor
Unknown
Mass
Unknown
Launch date (UTC)
1992-12-25 (33 years ago)
Launch vehicle
Unknown
Launch site
Tyuratam Missile And Space Complex (TTMTR)
Object type
Payload
Rocket body
Debris
Shape & HBR
Unknown shape, 0.1 m
Radar Cross Section
Small (<0.1 m²)

Expand to show TLE details & history
Last TLE update: 1 month ago

TLE from 1 month ago
0 SL-16 DEB
1 39864U 92093LS  25279.74224899  .00001845  00000-0  89503-3 0  9999
2 39864  71.1506 308.1673 0114143 264.4991  94.3105 14.16294363583220
Epoch: 2025-10-06T17:48Z
TLE epoch observation values (Epoch: 2025-10-06T17:48:50.312Z)
Latitude
-0.00007°
Longitude
25.31651°
Altitude
847.449 km
Speed
7.426 km/s
True Right ascension
20h 32m 40s
True Declination
0° 00' 00"
Sunlit
Object was in daylight at epoch
Visualization orbit readout
Latitude
Unknown
Longitude
Unknown
Altitude
Unknown
Speed
Unknown
Apparent Right ascension
Unknown
Apparent Declination
Unknown
Sunlit
N/A
Visualization observer readout
Local Sidereal Time
16:20:15
Azimuth
Unknown
Elevation
Unknown
Doppler factor
Unknown
Orbital elements
Apogee altitude
918.163 km
Perigee altitude
753.478 km
Semi-major axis
7,213.958 km
Eccentricity
0.01141
Inclination
71.1506°
RAAN
308.1673°
Arg. of periapsis
264.4991°
True anomaly
95.61327°
Mean anomaly
94.3105°
Eccentric anomaly
94.96204°
Mean motion
3.54228 °/min
Orbital period
101.63 mins
BSTAR
0.00089503
Loading maneuver chart data...
Computing Atmospheric mass density...

Documentation

Showing up to 5 results
|